timestamp,surface_pressure_avg,surface_temp_avg,battery_voltage,lat,long
2020-01-13 00:09:01+00:00,382.8763,0.8,12.57,47.84626,-54.09684
2020-01-13 00:19:01+00:00,392.5179,0.8,12.57,47.84626,-54.09684
2020-01-13 00:29:01+00:00,366.1996,0.7,12.57,47.84626,-54.09684
2020-01-13 00:39:01+00:00,363.5946,0.7,12.57,47.84626,-54.09684
2020-01-13 00:49:01+00:00,388.6863,0.7,12.57,47.84626,-54.09684
2020-01-13 00:59:01+00:00,392.5312,0.76,12.57,47.84626,-54.09684
2020-01-13 01:09:01+00:00,375.8979,0.7,12.57,47.84626,-54.09684
2020-01-13 01:19:01+00:00,386.8612,0.68,12.57,47.84626,-54.09684
2020-01-13 01:29:01+00:00,402.0279,0.79,12.57,47.84626,-54.09684
2020-01-13 01:39:01+00:00,385.9445,0.7,12.57,47.84626,-54.09684
2020-01-13 01:49:01+00:00,374.1912,0.6,12.57,47.84626,-54.09684
2020-01-13 01:59:01+00:00,377.2361,0.64,12.57,47.84626,-54.09684
2020-01-13 02:09:01+00:00,376.9562,0.7,12.57,47.84626,-54.09684
2020-01-13 02:19:01+00:00,353.973,0.6,12.57,47.84626,-54.09684
2020-01-13 02:29:01+00:00,346.8046,0.6,12.57,47.84626,-54.09684
2020-01-13 02:39:01+00:00,347.6496,0.6,12.57,47.84626,-54.09684
2020-01-13 02:49:01+00:00,337.8180000000001,0.59,12.57,47.84626,-54.09684
2020-01-13 02:59:01+00:00,331.5247,0.5,12.57,47.84626,-54.09684
2020-01-13 03:09:01+00:00,328.0446,0.52,12.57,47.84626,-54.09684
2020-01-13 03:19:01+00:00,325.7614,0.5,12.57,47.84626,-54.09684
2020-01-13 03:29:01+00:00,308.873,0.5,12.57,47.84626,-54.09684
2020-01-13 03:39:01+00:00,302.3513,0.4,12.57,47.84626,-54.09684
2020-01-13 03:49:01+00:00,293.3314,0.4,12.57,47.84626,-54.09684
2020-01-13 03:59:01+00:00,283.8947,0.39,12.57,47.84626,-54.09684
2020-01-13 04:09:01+00:00,264.6681,0.36,12.57,47.84626,-54.09684
2020-01-13 04:19:01+00:00,254.5948,0.37,12.57,47.84626,-54.09684
2020-01-13 04:29:01+00:00,250.2997,0.37,12.57,47.84626,-54.09684
2020-01-13 04:39:01+00:00,243.1714,0.36,12.57,47.84626,-54.09684
2020-01-13 04:49:01+00:00,229.6398,0.3,12.57,47.84626,-54.09684
2020-01-13 04:59:01+00:00,222.7348,0.2,12.57,47.84626,-54.09684
2020-01-13 05:09:01+00:00,219.9581,0.2,12.57,47.84626,-54.09684
2020-01-13 05:19:01+00:00,214.5814,0.2,12.57,47.84626,-54.09684
2020-01-13 05:29:01+00:00,210.9464,0.14,12.57,47.84626,-54.09684
2020-01-13 05:39:01+00:00,207.8565,0.1,12.57,47.84626,-54.09684
2020-01-13 05:49:01+00:00,208.4398,0.1,12.57,47.84626,-54.09684
2020-01-13 05:59:01+00:00,209.9298,0.13,12.57,47.84626,-54.09684
2020-01-13 06:09:01+00:00,209.5414,0.14,12.57,47.84626,-54.09684
2020-01-13 06:19:01+00:00,207.5648,0.17,12.57,47.84626,-54.09684
2020-01-13 06:29:01+00:00,206.4298,0.18,12.57,47.84626,-54.09684
2020-01-13 06:39:01+00:00,198.7581,0.18,12.57,47.84626,-54.09684
2020-01-13 06:49:01+00:00,185.3648,0.14,12.57,47.84626,-54.09684
2020-01-13 06:59:01+00:00,185.3365,0.14,12.57,47.84626,-54.09684
2020-01-13 07:09:01+00:00,192.7198,0.18,12.57,47.84626,-54.09684
2020-01-13 07:19:01+00:00,188.8298,0.18,12.57,47.84626,-54.09684
2020-01-13 07:29:01+00:00,184.3031,0.18,12.57,47.84626,-54.09684
2020-01-13 07:39:01+00:00,193.8881,0.18,12.57,47.84626,-54.09684
2020-01-13 07:49:01+00:00,206.1431,0.2,12.57,47.84626,-54.09684
2020-01-13 07:59:01+00:00,200.5381,0.2,12.57,47.84626,-54.09684
2020-01-13 08:09:01+00:00,186.1365,0.17,12.57,47.84626,-54.09684
2020-01-13 08:19:01+00:00,193.3631,0.15,12.57,47.84626,-54.09684
2020-01-13 08:29:01+00:00,205.6248,0.14,12.57,47.84626,-54.09684
2020-01-13 08:39:01+00:00,196.0498,0.1,12.57,47.84626,-54.09684
2020-01-13 08:49:01+00:00,195.6082,0.16,12.57,47.84626,-54.09684
2020-01-13 08:59:01+00:00,216.1698,0.19,12.57,47.84626,-54.09684
2020-01-13 09:09:01+00:00,223.5247,0.2,12.57,47.84626,-54.09684
2020-01-13 09:19:01+00:00,217.0282,0.1,12.57,47.84626,-54.09684
2020-01-13 09:29:01+00:00,220.7281,0.1,12.57,47.84626,-54.09684
2020-01-13 09:39:01+00:00,230.6531,0.15,12.57,47.84626,-54.09684
2020-01-13 09:49:01+00:00,228.9215,0.2,12.57,47.84626,-54.09684
2020-01-13 09:59:01+00:00,227.2798,0.04,12.57,47.84626,-54.09684
2020-01-13 10:09:01+00:00,234.0998,0.03,12.57,47.84626,-54.09684
2020-01-13 10:19:01+00:00,241.2781,0.09,12.57,47.84626,-54.09684
2020-01-13 10:29:01+00:00,249.0814,0.1,12.57,47.84626,-54.09684
2020-01-13 10:39:01+00:00,262.548,0.14,12.57,47.84626,-54.09684
2020-01-13 10:49:01+00:00,274.2281,0.2,12.57,47.84626,-54.09684
2020-01-13 10:59:01+00:00,284.5897,-0.05,12.57,47.84626,-54.09684
2020-01-13 11:09:01+00:00,299.0647,0.07,12.57,47.84626,-54.09684
2020-01-13 11:19:01+00:00,314.3247,0.3,12.57,47.84626,-54.09684
2020-01-13 11:29:01+00:00,321.7446,0.3,12.57,47.84626,-54.09684
2020-01-13 11:39:01+00:00,333.028,0.43,12.57,47.84626,-54.09684
2020-01-13 11:49:01+00:00,343.4497,0.9,12.57,47.84626,-54.09684
2020-01-13 11:59:01+00:00,350.2263,1.0,12.57,47.84626,-54.09684
2020-01-13 12:09:01+00:00,366.1512,0.95,12.57,47.84626,-54.09684
2020-01-13 12:19:01+00:00,382.9529,1.0,12.89,47.84626,-54.09684
2020-01-13 12:29:01+00:00,390.8113,1.0,12.89,47.84626,-54.09684
2020-01-13 12:39:01+00:00,388.0329,0.9,12.89,47.84626,-54.09684
2020-01-13 12:49:01+00:00,382.1013,0.89,12.89,47.84626,-54.09684
2020-01-13 12:59:01+00:00,388.0412,1.07,12.89,47.84626,-54.09684
2020-01-13 13:09:01+00:00,377.5347,1.1,12.89,47.84626,-54.09684
2020-01-13 13:19:01+00:00,359.2263,0.9,14.16,47.84626,-54.09684
2020-01-13 13:29:01+00:00,370.1296,0.97,14.16,47.84626,-54.09684
2020-01-13 13:39:01+00:00,382.5597,1.26,14.16,47.84626,-54.09684
2020-01-13 13:49:01+00:00,374.0546,1.2,14.16,47.84626,-54.09684
2020-01-13 13:59:01+00:00,373.7512,1.05,14.16,47.84626,-54.09684
2020-01-13 14:09:01+00:00,384.1263,1.17,14.16,47.84626,-54.09684
2020-01-13 14:19:01+00:00,368.8329,1.04,14.96,47.84626,-54.09684
2020-01-13 14:29:01+00:00,347.228,0.7,14.96,47.84626,-54.09684
2020-01-13 14:39:01+00:00,357.05300000000005,0.7,14.96,47.84626,-54.09684
2020-01-13 14:49:01+00:00,374.5146,0.91,14.96,47.84626,-54.09684
2020-01-13 14:59:01+00:00,360.6663,1.0,14.96,47.84626,-54.09684
2020-01-13 15:09:01+00:00,351.5513,1.15,14.96,47.84626,-54.09684
2020-01-13 15:19:01+00:00,362.5914,1.4,14.88,47.84626,-54.09684
2020-01-13 15:29:01+00:00,363.1913,1.4,14.88,47.84626,-54.09684
2020-01-13 15:39:01+00:00,347.3246,1.4,14.88,47.84626,-54.09684
2020-01-13 15:49:01+00:00,348.0696,1.4,14.88,47.84626,-54.09684
2020-01-13 15:59:01+00:00,343.1246,1.4,14.88,47.84626,-54.09684
2020-01-13 16:09:01+00:00,324.0413,1.43,14.88,47.84626,-54.09684
2020-01-13 16:19:01+00:00,309.9813,1.4,14.8,47.84626,-54.09684
2020-01-13 16:29:01+00:00,306.678,1.2,14.8,47.84626,-54.09684
2020-01-13 16:39:01+00:00,293.0013,1.0,14.8,47.84626,-54.09684
2020-01-13 16:49:01+00:00,276.0497,1.45,14.8,47.84626,-54.09684
2020-01-13 16:59:01+00:00,279.8281,1.4,14.8,47.84626,-54.09684
2020-01-13 17:09:01+00:00,278.093,1.4,14.8,47.84626,-54.09684
2020-01-13 17:19:01+00:00,255.8948,1.4,14.64,47.84626,-54.09684
2020-01-13 17:29:01+00:00,239.8614,1.35,14.64,47.84626,-54.09684
2020-01-13 17:39:01+00:00,238.2764,1.36,14.64,47.84626,-54.09684
2020-01-13 17:49:01+00:00,230.7081,1.4,14.64,47.84626,-54.09684
2020-01-13 17:59:01+00:00,217.7914,1.4,14.64,47.84626,-54.09684
2020-01-13 18:09:01+00:00,208.2481,1.4,14.64,47.84626,-54.09684
2020-01-13 18:19:01+00:00,195.8298,1.4,14.56,47.84626,-54.09684
2020-01-13 18:29:01+00:00,183.3065,1.4,14.56,47.84626,-54.09684
2020-01-13 18:39:01+00:00,184.1598,1.4,14.56,47.84626,-54.09684
2020-01-13 18:49:01+00:00,187.9681,1.44,14.56,47.84626,-54.09684
2020-01-13 18:59:01+00:00,186.0482,1.5,14.56,47.84626,-54.09684
2020-01-13 19:09:01+00:00,180.4381,1.5,14.56,47.84626,-54.09684
2020-01-13 19:19:01+00:00,177.1282,1.54,14.4,47.84626,-54.09684
2020-01-13 19:29:01+00:00,174.4532,1.59,14.4,47.84626,-54.09684
2020-01-13 19:39:01+00:00,166.1865,1.6,14.4,47.84626,-54.09684
2020-01-13 19:49:01+00:00,158.9965,1.54,14.4,47.84626,-54.09684
2020-01-13 19:59:01+00:00,161.3431,1.58,14.4,47.84626,-54.09684
2020-01-13 20:09:01+00:00,159.0398,1.56,14.4,47.84626,-54.09684
2020-01-13 20:19:01+00:00,160.0615,1.52,13.6,47.84626,-54.09684
2020-01-13 20:29:01+00:00,168.8632,1.55,13.6,47.84626,-54.09684
2020-01-13 20:39:01+00:00,168.2349,1.54,13.6,47.84626,-54.09684
2020-01-13 20:49:01+00:00,167.1165,1.5,13.6,47.84626,-54.09684
2020-01-13 20:59:01+00:00,175.3682,1.5,13.6,47.84626,-54.09684
2020-01-13 21:09:01+00:00,181.3015,1.5,13.6,47.84626,-54.09684
2020-01-13 21:19:01+00:00,173.7315,1.55,13.13,47.84626,-54.09684
2020-01-13 21:29:01+00:00,177.1365,1.5,13.13,47.84626,-54.09684
2020-01-13 21:39:01+00:00,187.5848,1.5,13.13,47.84626,-54.09684
2020-01-13 21:49:01+00:00,188.1131,1.5,13.13,47.84626,-54.09684
2020-01-13 21:59:01+00:00,194.7615,1.5,13.13,47.84626,-54.09684
2020-01-13 22:09:01+00:00,209.2348,1.5,13.13,47.84626,-54.09684
2020-01-13 22:19:01+00:00,222.0481,1.5,12.81,47.84626,-54.09684
2020-01-13 22:29:01+00:00,229.0098,1.53,12.81,47.84626,-54.09684
2020-01-13 22:39:01+00:00,237.9281,1.54,12.81,47.84626,-54.09684
2020-01-13 22:49:01+00:00,241.8831,1.5,12.81,47.84626,-54.09684
2020-01-13 22:59:01+00:00,243.3581,1.5,12.81,47.84626,-54.09684
2020-01-13 23:09:01+00:00,256.7547,1.5,12.81,47.84626,-54.09684
2020-01-13 23:19:01+00:00,272.1215,1.4,12.73,47.84626,-54.09684
2020-01-13 23:29:01+00:00,275.2714,1.4,12.73,47.84626,-54.09684
2020-01-13 23:39:01+00:00,282.7897,1.4,12.73,47.84626,-54.09684
2020-01-13 23:49:01+00:00,302.108,1.4,12.73,47.84626,-54.09684
2020-01-13 23:59:01+00:00,309.2697,1.3,12.73,47.84626,-54.09684
